| time (UTC) | temp C | wind direction | speed KPH | gust KPH | rain 1hr cm | rain 24hr cm | rain mn cm | humidity % | barometer mb |
| 20260506003554 | 27 | 182 | 0.0 | 6.4 | 0.00 | 0.00 | 0.00 | 58 | 1006.4 |
| 20260506003048 | 27 | 165 | 1.6 | 6.4 | 0.00 | 0.00 | 0.00 | 58 | 1006.5 |
| 20260506002547 | 27 | 164 | 1.6 | 9.7 | 0.00 | 0.00 | 0.00 | 58 | 1006.5 |
| 20260506002045 | 27 | 165 | 1.6 | 9.7 | 0.00 | 0.00 | 0.00 | 58 | 1006.5 |
| 20260506001543 | 27 | 179 | 3.2 | 11.3 | 0.00 | 0.00 | 0.00 | 57 | 1006.4 |
| 20260506001043 | 27 | 148 | 3.2 | 11.3 | 0.00 | 0.00 | 0.00 | 57 | 1006.4 |
| 20260506000541 | 27 | 171 | 3.2 | 9.7 | 0.00 | 0.00 | 0.00 | 57 | 1006.4 |
| 20260506000038 | 28 | 140 | 4.8 | 16.1 | 0.00 | 0.00 | 0.00 | 57 | 1006.3 |
| 20260505235817 | 28 | 148 | 4.8 | 16.1 | 0.00 | 0.00 | 0.00 | 56 | 1006.3 |
| 20260505235037 | 28 | 154 | 4.8 | 16.1 | 0.00 | 0.00 | 0.00 | 56 | 1006.1 |
| 20260505234817 | 28 | 169 | 6.4 | 14.5 | 0.00 | 0.00 | 0.00 | 56 | 1006.1 |
| 20260505234036 | 28 | 188 | 6.4 | 17.7 | 0.00 | 0.00 | 0.00 | 56 | 1006.0 |
| 20260505233530 | 28 | 146 | 6.4 | 17.7 | 0.00 | 0.00 | 0.00 | 56 | 1006.1 |
| 20260505233031 | 28 | 180 | 6.4 | 12.9 | 0.00 | 0.00 | 0.00 | 56 | 1006.0 |
| 20260505232807 | 28 | 152 | 6.4 | 14.5 | 0.00 | 0.00 | 0.00 | 56 | 1006.0 |
| 20260505232032 | 28 | 160 | 8.0 | 17.7 | 0.00 | 0.00 | 0.00 | 56 | 1006.1 |
| 20260505231531 | 28 | 234 | 8.0 | 17.7 | 0.00 | 0.00 | 0.00 | 56 | 1006.0 |
| 20260505231032 | 28 | 150 | 8.0 | 17.7 | 0.00 | 0.00 | 0.00 | 55 | 1006.2 |
| 20260505230528 | 28 | 150 | 8.0 | 17.7 | 0.00 | 0.00 | 0.00 | 55 | 1006.0 |
| 20260505230310 | 28 | 182 | 4.8 | 17.7 | 0.00 | 0.00 | 0.00 | 55 | 1005.9 |
| 20260505225529 | 28 | 143 | 6.4 | 12.9 | 0.00 | 0.00 | 0.00 | 55 | 1006.0 |
| 20260505225051 | 28 | 154 | 6.4 | 16.1 | 0.00 | 0.00 | 0.00 | 54 | 1005.9 |
| 20260505225045 | 28 | 209 | 6.4 | 12.9 | 0.00 | 0.00 | 0.00 | 54 | 1005.9 |
| 20260505224029 | 28 | 0 | 6.4 | 16.1 | 0.00 | 0.00 | 0.00 | 54 | 1005.9 |
| 20260505223529 | 28 | 161 | 8.0 | 17.7 | 0.00 | 0.00 | 0.00 | 55 | 1005.9 |
| 20260505223043 | 28 | 174 | 9.7 | 22.5 | 0.00 | 0.00 | 0.00 | 54 | 1005.9 |
| 20260505223037 | 28 | 184 | 8.0 | 17.7 | 0.00 | 0.00 | 0.00 | 54 | 1006.0 |
| 20260505222020 | 28 | 173 | 8.0 | 22.5 | 0.00 | 0.00 | 0.00 | 54 | 1006.0 |
| 20260505221519 | 28 | 161 | 6.4 | 17.7 | 0.00 | 0.00 | 0.00 | 55 | 1006.1 |
| 20260505221021 | 28 | 175 | 8.0 | 17.7 | 0.00 | 0.00 | 0.00 | 55 | 1006.1 |
| 20260505220521 | 28 | 165 | 8.0 | 17.7 | 0.00 | 0.00 | 0.00 | 54 | 1006.1 |
| 20260505220019 | 28 | 170 | 6.4 | 17.7 | 0.00 | 0.00 | 0.00 | 53 | 1006.1 |
| 20260505215517 | 28 | 227 | 6.4 | 14.5 | 0.00 | 0.00 | 0.00 | 56 | 1006.3 |
| 20260505215016 | 28 | 216 | 6.4 | 12.9 | 0.00 | 0.00 | 0.00 | 54 | 1006.4 |
| 20260505214516 | 28 | 217 | 4.8 | 19.3 | 0.00 | 0.00 | 0.00 | 56 | 1006.4 |
| 20260505214257 | 28 | 187 | 4.8 | 19.3 | 0.00 | 0.00 | 0.00 | 55 | 1006.4 |
| 20260505213756 | 28 | 178 | 4.8 | 14.5 | 0.00 | 0.00 | 0.00 | 55 | 1006.3 |
| 20260505213009 | 28 | 171 | 4.8 | 14.5 | 0.00 | 0.00 | 0.00 | 55 | 1006.5 |
| 20260505212752 | 28 | 202 | 6.4 | 16.1 | 0.00 | 0.00 | 0.00 | 56 | 1006.7 |
| 20260505212008 | 28 | 188 | 8.0 | 16.1 | 0.00 | 0.00 | 0.00 | 56 | 1006.8 |
| 20260505211508 | 28 | 132 | 6.4 | 16.1 | 0.00 | 0.00 | 0.00 | 56 | 1006.8 |
| 20260505211008 | 28 | 157 | 6.4 | 16.1 | 0.00 | 0.00 | 0.00 | 56 | 1006.6 |
| 20260505210508 | 28 | 166 | 6.4 | 19.3 | 0.00 | 0.00 | 0.00 | 55 | 1006.9 |
| 20260505210009 | 28 | 183 | 6.4 | 19.3 | 0.00 | 0.00 | 0.00 | 56 | 1007.0 |
| 20260505205503 | 28 | 228 | 6.4 | 16.1 | 0.00 | 0.00 | 0.00 | 54 | 1007.1 |
| 20260505205003 | 28 | 158 | 6.4 | 16.1 | 0.00 | 0.00 | 0.00 | 55 | 1006.9 |
| 20260505204502 | 28 | 145 | 6.4 | 19.3 | 0.00 | 0.00 | 0.00 | 56 | 1007.0 |
| 20260505204001 | 28 | 153 | 8.0 | 19.3 | 0.00 | 0.00 | 0.00 | 55 | 1007.0 |
| 20260505203501 | 27 | 188 | 8.0 | 17.7 | 0.00 | 0.00 | 0.00 | 56 | 1007.2 |
| 20260505203003 | 27 | 191 | 8.0 | 22.5 | 0.00 | 0.00 | 0.00 | 56 | 1007.2 |
| 20260505202459 | 27 | 225 | 8.0 | 22.5 | 0.00 | 0.00 | 0.00 | 56 | 1007.3 |
| 20260505202000 | 27 | 210 | 6.4 | 17.7 | 0.00 | 0.00 | 0.00 | 57 | 1007.4 |
| 20260505201501 | 27 | 167 | 6.4 | 19.3 | 0.00 | 0.00 | 0.00 | 58 | 1007.5 |
| 20260505201001 | 27 | 166 | 6.4 | 19.3 | 0.00 | 0.00 | 0.00 | 57 | 1007.6 |
| 20260505200500 | 27 | 216 | 4.8 | 12.9 | 0.00 | 0.00 | 0.00 | 57 | 1007.7 |
| 20260505200001 | 27 | 175 | 4.8 | 12.9 | 0.00 | 0.00 | 0.00 | 58 | 1007.7 |
| 20260505195500 | 27 | 165 | 4.8 | 14.5 | 0.00 | 0.00 | 0.00 | 58 | 1008.0 |
| 20260505194955 | 27 | 175 | 4.8 | 14.5 | 0.00 | 0.00 | 0.00 | 58 | 1008.1 |
| 20260505194456 | 27 | 213 | 6.4 | 16.1 | 0.00 | 0.00 | 0.00 | 59 | 1008.1 |
| 20260505193956 | 26 | 195 | 6.4 | 16.1 | 0.00 | 0.00 | 0.00 | 59 | 1008.1 |
| 20260505193455 | 26 | 132 | 4.8 | 16.1 | 0.00 | 0.00 | 0.00 | 59 | 1008.2 |
| 20260505192955 | 26 | 153 | 4.8 | 16.1 | 0.00 | 0.00 | 0.00 | 59 | 1008.2 |
| 20260505192455 | 27 | 165 | 6.4 | 17.7 | 0.00 | 0.00 | 0.00 | 59 | 1008.2 |
| 20260505191958 | 26 | 182 | 6.4 | 17.7 | 0.00 | 0.00 | 0.00 | 59 | 1008.4 |
| 20260505191457 | 26 | 197 | 6.4 | 16.1 | 0.00 | 0.00 | 0.00 | 59 | 1008.2 |
| 20260505190957 | 26 | 165 | 6.4 | 16.1 | 0.00 | 0.00 | 0.00 | 60 | 1008.3 |
| 20260505190455 | 26 | 198 | 6.4 | 19.3 | 0.00 | 0.00 | 0.00 | 60 | 1008.4 |
| 20260505190237 | 26 | 169 | 6.4 | 19.3 | 0.00 | 0.00 | 0.00 | 61 | 1008.4 |
| 20260505185452 | 26 | 132 | 6.4 | 14.5 | 0.00 | 0.00 | 0.00 | 60 | 1008.4 |
| 20260505185232 | 26 | 160 | 6.4 | 14.5 | 0.00 | 0.00 | 0.00 | 61 | 1008.5 |
| 20260505184453 | 26 | 160 | 8.0 | 20.9 | 0.00 | 0.00 | 0.00 | 61 | 1008.6 |
| 20260505183951 | 26 | 215 | 8.0 | 20.9 | 0.00 | 0.00 | 0.00 | 61 | 1008.7 |
| 20260505183734 | 25 | 213 | 8.0 | 24.1 | 0.00 | 0.00 | 0.00 | 61 | 1008.8 |
| 20260505182952 | 25 | 250 | 4.8 | 24.1 | 0.00 | 0.00 | 0.00 | 61 | 1008.6 |
| 20260505182727 | 25 | 223 | 4.8 | 12.9 | 0.00 | 0.00 | 0.00 | 61 | 1008.8 |
| 20260505182229 | 25 | 174 | 6.4 | 17.7 | 0.00 | 0.00 | 0.00 | 61 | 1008.8 |
| 20260505181720 | 25 | 223 | 6.4 | 17.7 | 0.00 | 0.00 | 0.00 | 61 | 1008.9 |
| 20260505181450 | 25 | 223 | 6.4 | 17.7 | 0.00 | 0.00 | 0.00 | 61 | 1008.9 |
| 20260505180948 | 25 | 225 | 6.4 | 17.7 | 0.00 | 0.00 | 0.00 | 62 | 1008.9 |
| 20260505180728 | 25 | 154 | 4.8 | 17.7 | 0.00 | 0.00 | 0.00 | 62 | 1009.0 |
| 20260505175950 | 25 | 239 | 6.4 | 17.7 | 0.00 | 0.00 | 0.00 | 62 | 1009.1 |
| 20260505175445 | 25 | 221 | 6.4 | 19.3 | 0.00 | 0.00 | 0.00 | 62 | 1009.2 |
| 20260505174944 | 25 | 159 | 4.8 | 19.3 | 0.00 | 0.00 | 0.00 | 62 | 1009.1 |
| 20260505174724 | 25 | 215 | 6.4 | 19.3 | 0.00 | 0.00 | 0.00 | 62 | 1009.2 |
| 20260505173942 | 24 | 176 | 8.0 | 22.5 | 0.00 | 0.00 | 0.00 | 62 | 1009.3 |
| 20260505173443 | 24 | 235 | 8.0 | 22.5 | 0.00 | 0.00 | 0.00 | 62 | 1009.3 |
| 20260505172941 | 25 | 221 | 6.4 | 17.7 | 0.00 | 0.00 | 0.00 | 62 | 1009.3 |
| 20260505172725 | 25 | 215 | 6.4 | 16.1 | 0.00 | 0.00 | 0.00 | 63 | 1009.2 |
| 20260505171941 | 24 | 208 | 6.4 | 17.7 | 0.00 | 0.00 | 0.00 | 63 | 1009.2 |
| 20260505171443 | 24 | 186 | 6.4 | 17.7 | 0.00 | 0.00 | 0.00 | 63 | 1009.2 |
| 20260505170943 | 25 | 190 | 6.4 | 17.7 | 0.00 | 0.00 | 0.00 | 63 | 1009.3 |
| 20260505170438 | 24 | 238 | 6.4 | 17.7 | 0.00 | 0.00 | 0.00 | 64 | 1009.4 |
| 20260505165937 | 24 | 211 | 6.4 | 17.7 | 0.00 | 0.00 | 0.00 | 64 | 1009.4 |
| 20260505165437 | 23 | 215 | 6.4 | 16.1 | 0.00 | 0.00 | 0.00 | 64 | 1009.3 |
| 20260505165224 | 23 | 199 | 4.8 | 16.1 | 0.00 | 0.00 | 0.00 | 65 | 1009.3 |
| 20260505164438 | 23 | 125 | 4.8 | 17.7 | 0.00 | 0.00 | 0.00 | 65 | 1009.3 |
| 20260505163938 | 23 | 227 | 6.4 | 17.7 | 0.00 | 0.00 | 0.00 | 65 | 1009.2 |
| 20260505163438 | 23 | 217 | 4.8 | 12.9 | 0.00 | 0.00 | 0.00 | 66 | 1009.3 |
| 20260505163215 | 23 | 201 | 4.8 | 17.7 | 0.00 | 0.00 | 0.00 | 65 | 1009.2 |
| 20260505162435 | 23 | 222 | 4.8 | 17.7 | 0.00 | 0.00 | 0.00 | 65 | 1009.2 |
| 20260505161934 | 23 | 207 | 4.8 | 14.5 | 0.00 | 0.00 | 0.00 | 65 | 1009.3 |
| 20260505161433 | 23 | 246 | 4.8 | 14.5 | 0.00 | 0.00 | 0.00 | 66 | 1009.3 |
| 20260505160933 | 22 | 225 | 6.4 | 17.7 | 0.00 | 0.00 | 0.00 | 66 | 1009.3 |
| 20260505160434 | 22 | 227 | 8.0 | 19.3 | 0.00 | 0.00 | 0.00 | 66 | 1009.3 |
| 20260505152927 | 22 | 205 | 6.4 | 14.5 | 0.00 | 0.00 | 0.00 | 68 | 1009.5 |
| 20260505152428 | 22 | 235 | 6.4 | 12.9 | 0.00 | 0.00 | 0.00 | 68 | 1009.3 |
| 20260505151920 | 22 | 210 | 6.4 | 19.3 | 0.00 | 0.00 | 0.00 | 68 | 1009.2 |
| 20260505151419 | 22 | 168 | 6.4 | 19.3 | 0.00 | 0.00 | 0.00 | 69 | 1009.2 |
| 20260505150919 | 22 | 228 | 4.8 | 14.5 | 0.00 | 0.00 | 0.00 | 69 | 1009.1 |
| 20260505150453 | 22 | 223 | 4.8 | 19.3 | 0.00 | 0.00 | 0.00 | 69 | 1009.2 |
| 20260505150442 | 22 | 252 | 4.8 | 16.1 | 0.00 | 0.00 | 0.00 | 69 | 1009.2 |
| 20260505140411 | 21 | 173 | 4.8 | 12.9 | 0.00 | 0.00 | 0.00 | 70 | 1008.8 |
| 20260505124900 | 21 | 202 | 6.4 | 17.7 | 0.00 | 0.00 | 0.00 | 69 | 1008.2 |
| 20260505124354 | 21 | 218 | 6.4 | 24.1 | 0.00 | 0.00 | 0.00 | 69 | 1008.1 |
| 20260505123854 | 21 | 200 | 6.4 | 24.1 | 0.00 | 0.00 | 0.00 | 69 | 1008.0 |
| 20260505123354 | 21 | 218 | 6.4 | 22.5 | 0.00 | 0.00 | 0.00 | 69 | 1007.9 |
| 20260505122854 | 21 | 200 | 6.4 | 17.7 | 0.00 | 0.00 | 0.00 | 69 | 1007.9 |
| 20260505122355 | 21 | 194 | 6.4 | 22.5 | 0.00 | 0.00 | 0.00 | 69 | 1007.9 |
| 20260505121855 | 21 | 215 | 6.4 | 22.5 | 0.00 | 0.00 | 0.00 | 69 | 1007.6 |
| 20260505121348 | 21 | 157 | 4.8 | 16.1 | 0.00 | 0.00 | 0.00 | 69 | 1007.6 |
| 20260505120847 | 21 | 207 | 4.8 | 16.1 | 0.00 | 0.00 | 0.00 | 69 | 1007.5 |
| 20260505120347 | 21 | 190 | 6.4 | 16.1 | 0.00 | 0.00 | 0.00 | 69 | 1007.5 |
| 20260505115848 | 21 | 150 | 6.4 | 16.1 | 0.00 | 0.00 | 0.00 | 69 | 1007.5 |
| 20260505115626 | 21 | 163 | 6.4 | 20.9 | 0.00 | 0.00 | 0.00 | 69 | 1007.4 |
| 20260505114848 | 21 | 166 | 6.4 | 20.9 | 0.00 | 0.00 | 0.00 | 68 | 1007.4 |
| 20260505114624 | 21 | 218 | 6.4 | 19.3 | 0.00 | 0.00 | 0.00 | 68 | 1007.3 |
| 20260505113909 | 21 | 214 | 8.0 | 22.5 | 0.00 | 0.00 | 0.00 | 68 | 1007.4 |
| 20260505113900 | 21 | 196 | 6.4 | 22.5 | 0.00 | 0.00 | 0.00 | 68 | 1007.4 |
| 20260505112842 | 21 | 178 | 8.0 | 22.5 | 0.00 | 0.00 | 0.00 | 68 | 1007.2 |
| 20260505112341 | 21 | 195 | 6.4 | 22.5 | 0.00 | 0.00 | 0.00 | 68 | 1007.2 |
| 20260505111842 | 21 | 196 | 6.4 | 24.1 | 0.00 | 0.00 | 0.00 | 68 | 1007.3 |
| 20260505111338 | 21 | 198 | 6.4 | 24.1 | 0.00 | 0.00 | 0.00 | 68 | 1007.5 |
| 20260505110840 | 21 | 155 | 6.4 | 19.3 | 0.00 | 0.00 | 0.00 | 68 | 1007.5 |
| 20260505110339 | 21 | 212 | 6.4 | 19.3 | 0.00 | 0.00 | 0.00 | 68 | 1007.7 |
| 20260505102111 | 21 | 194 | 4.8 | 14.5 | 0.00 | 0.00 | 0.00 | 68 | 1007.9 |
| 20260505101335 | 21 | 188 | 4.8 | 14.5 | 0.00 | 0.00 | 0.00 | 68 | 1007.9 |
| 20260505101116 | 21 | 150 | 4.8 | 16.1 | 0.00 | 0.00 | 0.00 | 68 | 1007.9 |
| 20260505100330 | 21 | 215 | 4.8 | 16.1 | 0.00 | 0.00 | 0.00 | 68 | 1007.9 |
| 20260505095829 | 21 | 188 | 6.4 | 17.7 | 0.00 | 0.00 | 0.00 | 68 | 1007.7 |
| 20260505095329 | 21 | 165 | 6.4 | 17.7 | 0.00 | 0.00 | 0.00 | 68 | 1007.5 |
| 20260505094828 | 21 | 175 | 4.8 | 17.7 | 0.00 | 0.00 | 0.00 | 67 | 1007.6 |
| 20260505094328 | 21 | 155 | 6.4 | 17.7 | 0.00 | 0.00 | 0.00 | 68 | 1007.7 |
| 20260505093827 | 21 | 225 | 6.4 | 19.3 | 0.00 | 0.00 | 0.00 | 68 | 1007.9 |
| 20260505093604 | 21 | 175 | 4.8 | 19.3 | 0.00 | 0.00 | 0.00 | 67 | 1007.9 |
| 20260505092823 | 21 | 163 | 4.8 | 12.9 | 0.00 | 0.00 | 0.00 | 67 | 1007.7 |
| 20260505092324 | 21 | 215 | 6.4 | 16.1 | 0.00 | 0.00 | 0.00 | 67 | 1007.6 |
| 20260505091823 | 21 | 158 | 6.4 | 16.1 | 0.00 | 0.00 | 0.00 | 67 | 1008.0 |
| 20260505091324 | 21 | 195 | 4.8 | 16.1 | 0.00 | 0.00 | 0.00 | 68 | 1008.1 |
| 20260505090825 | 21 | 174 | 4.8 | 16.1 | 0.00 | 0.00 | 0.00 | 68 | 1008.0 |
| 20260505090323 | 21 | 225 | 4.8 | 14.5 | 0.00 | 0.00 | 0.00 | 68 | 1008.0 |
| 20260505090058 | 21 | 223 | 6.4 | 17.7 | 0.00 | 0.00 | 0.00 | 68 | 1008.0 |
| 20260505085319 | 21 | 202 | 6.4 | 17.7 | 0.00 | 0.00 | 0.00 | 68 | 1007.9 |
| 20260505084817 | 21 | 220 | 6.4 | 19.3 | 0.00 | 0.00 | 0.00 | 68 | 1008.1 |
| 20260505084317 | 21 | 227 | 6.4 | 19.3 | 0.00 | 0.00 | 0.00 | 68 | 1008.0 |
| 20260505083817 | 21 | 196 | 8.0 | 20.9 | 0.00 | 0.00 | 0.00 | 68 | 1007.9 |
| 20260505083318 | 21 | 239 | 6.4 | 20.9 | 0.00 | 0.00 | 0.00 | 68 | 1008.1 |
| 20260505082813 | 21 | 203 | 6.4 | 17.7 | 0.00 | 0.00 | 0.00 | 67 | 1008.3 |
| 20260505082313 | 21 | 171 | 6.4 | 16.1 | 0.00 | 0.00 | 0.00 | 67 | 1008.2 |
| 20260505082056 | 21 | 187 | 6.4 | 16.1 | 0.00 | 0.00 | 0.00 | 67 | 1008.2 |
| 20260505081308 | 21 | 213 | 6.4 | 17.7 | 0.00 | 0.00 | 0.00 | 67 | 1008.3 |
| 20260505080803 | 21 | 194 | 6.4 | 17.7 | 0.00 | 0.00 | 0.00 | 67 | 1008.5 |
| 20260505080304 | 21 | 167 | 6.4 | 17.7 | 0.00 | 0.00 | 0.00 | 67 | 1008.3 |
| 20260505075803 | 21 | 128 | 6.4 | 17.7 | 0.00 | 0.00 | 0.00 | 67 | 1008.4 |
| 20260505075304 | 21 | 169 | 6.4 | 19.3 | 0.00 | 0.00 | 0.00 | 67 | 1008.4 |
| 20260505074804 | 21 | 181 | 6.4 | 19.3 | 0.00 | 0.00 | 0.00 | 67 | 1008.6 |
| 20260505074305 | 21 | 167 | 6.4 | 19.3 | 0.00 | 0.00 | 0.00 | 67 | 1008.6 |
| 20260505073800 | 21 | 220 | 6.4 | 20.9 | 0.00 | 0.00 | 0.00 | 67 | 1008.7 |
| 20260505073300 | 21 | 181 | 6.4 | 20.9 | 0.00 | 0.00 | 0.00 | 67 | 1008.8 |
| 20260505072800 | 21 | 190 | 6.4 | 19.3 | 0.00 | 0.00 | 0.00 | 67 | 1008.9 |
| 20260505072258 | 21 | 160 | 8.0 | 19.3 | 0.00 | 0.00 | 0.00 | 67 | 1009.0 |
| 20260505072038 | 21 | 171 | 8.0 | 19.3 | 0.00 | 0.00 | 0.00 | 67 | 1009.0 |
| 20260505071300 | 21 | 180 | 6.4 | 17.7 | 0.00 | 0.00 | 0.00 | 67 | 1009.0 |
| 20260505070755 | 21 | 197 | 6.4 | 17.7 | 0.00 | 0.00 | 0.00 | 67 | 1009.1 |
| 20260505070257 | 21 | 200 | 6.4 | 17.7 | 0.00 | 0.00 | 0.00 | 67 | 1009.1 |
| 20260505065755 | 21 | 201 | 8.0 | 19.3 | 0.00 | 0.00 | 0.00 | 67 | 1009.3 |
| 20260505065255 | 21 | 166 | 8.0 | 19.3 | 0.00 | 0.00 | 0.00 | 67 | 1009.2 |
| 20260505064754 | 21 | 190 | 6.4 | 17.7 | 0.00 | 0.00 | 0.00 | 67 | 1009.4 |
| 20260505064256 | 21 | 182 | 8.0 | 19.3 | 0.00 | 0.00 | 0.00 | 67 | 1009.3 |
| 20260505063750 | 21 | 212 | 8.0 | 19.3 | 0.00 | 0.00 | 0.00 | 67 | 1009.5 |
| 20260505063251 | 21 | 160 | 6.4 | 19.3 | 0.00 | 0.00 | 0.00 | 67 | 1009.6 |
| 20260505063033 | 21 | 142 | 6.4 | 19.3 | 0.00 | 0.00 | 0.00 | 67 | 1009.7 |
| 20260505062250 | 21 | 161 | 6.4 | 19.3 | 0.00 | 0.00 | 0.00 | 67 | 1009.7 |
| 20260505061752 | 21 | 162 | 6.4 | 19.3 | 0.00 | 0.00 | 0.00 | 66 | 1009.7 |
| 20260505061535 | 21 | 174 | 6.4 | 19.3 | 0.00 | 0.00 | 0.00 | 66 | 1009.8 |
| 20260505061026 | 21 | 155 | 6.4 | 19.3 | 0.00 | 0.00 | 0.00 | 66 | 1009.7 |
| 20260505060248 | 21 | 193 | 6.4 | 16.1 | 0.00 | 0.00 | 0.00 | 66 | 1009.7 |
| 20260505055748 | 21 | 184 | 4.8 | 14.5 | 0.00 | 0.00 | 0.00 | 66 | 1009.7 |
| 20260505055247 | 21 | 163 | 4.8 | 14.5 | 0.00 | 0.00 | 0.00 | 66 | 1009.7 |
| 20260505054748 | 21 | 160 | 4.8 | 12.9 | 0.00 | 0.00 | 0.00 | 66 | 1009.7 |
| 20260505054247 | 21 | 151 | 4.8 | 17.7 | 0.00 | 0.00 | 0.00 | 66 | 1009.7 |
| 20260505053746 | 21 | 205 | 4.8 | 17.7 | 0.00 | 0.00 | 0.00 | 66 | 1009.7 |
| 20260505053247 | 21 | 149 | 6.4 | 17.7 | 0.00 | 0.00 | 0.00 | 66 | 1009.7 |
| 20260505052746 | 21 | 167 | 6.4 | 17.7 | 0.00 | 0.00 | 0.00 | 66 | 1009.8 |
| 20260505052248 | 21 | 169 | 4.8 | 20.9 | 0.00 | 0.00 | 0.00 | 66 | 1009.7 |
| 20260505052019 | 21 | 185 | 6.4 | 20.9 | 0.00 | 0.00 | 0.00 | 67 | 1009.6 |
| 20260505051240 | 21 | 0 | 4.8 | 16.1 | 0.00 | 0.00 | 0.00 | 66 | 1009.5 |
| 20260505050741 | 21 | 173 | 4.8 | 16.1 | 0.00 | 0.00 | 0.00 | 66 | 1009.6 |
| 20260505050240 | 21 | 0 | 4.8 | 14.5 | 0.00 | 0.00 | 0.00 | 66 | 1009.7 |
| 20260505041726 | 21 | 166 | 6.4 | 17.7 | 0.00 | 0.00 | 0.00 | 65 | 1009.5 |
| 20260505041226 | 21 | 156 | 6.4 | 17.7 | 0.00 | 0.00 | 0.00 | 64 | 1009.6 |
| 20260505041005 | 22 | 171 | 6.4 | 17.7 | 0.00 | 0.00 | 0.00 | 65 | 1009.6 |
| 20260505040227 | 22 | 150 | 6.4 | 17.7 | 0.00 | 0.00 | 0.00 | 64 | 1009.7 |
| 20260505035725 | 22 | 153 | 6.4 | 17.7 | 0.00 | 0.00 | 0.00 | 64 | 1009.6 |
| 20260505035226 | 22 | 158 | 6.4 | 16.1 | 0.00 | 0.00 | 0.00 | 64 | 1009.6 |
| 20260505034718 | 22 | 109 | 6.4 | 16.1 | 0.00 | 0.00 | 0.00 | 64 | 1009.5 |
| 20260505034219 | 22 | 163 | 6.4 | 14.5 | 0.00 | 0.00 | 0.00 | 63 | 1009.5 |
| 20260505033718 | 22 | 163 | 6.4 | 14.5 | 0.00 | 0.00 | 0.00 | 63 | 1009.5 |
| 20260505033219 | 22 | 173 | 6.4 | 14.5 | 0.00 | 0.00 | 0.00 | 63 | 1009.4 |
| 20260505032720 | 22 | 163 | 4.8 | 16.1 | 0.00 | 0.00 | 0.00 | 63 | 1009.4 |
| 20260505032218 | 22 | 212 | 4.8 | 16.1 | 0.00 | 0.00 | 0.00 | 62 | 1009.5 |
| 20260505031952 | 22 | 168 | 4.8 | 11.3 | 0.00 | 0.00 | 0.00 | 62 | 1009.5 |
| 20260505031213 | 22 | 168 | 6.4 | 14.5 | 0.00 | 0.00 | 0.00 | 62 | 1009.5 |
| 20260505030714 | 23 | 191 | 6.4 | 16.1 | 0.00 | 0.00 | 0.00 | 62 | 1009.5 |
| 20260505030453 | 23 | 149 | 6.4 | 16.1 | 0.00 | 0.00 | 0.00 | 61 | 1009.6 |
| 20260505025713 | 23 | 163 | 6.4 | 14.5 | 0.00 | 0.00 | 0.00 | 61 | 1009.6 |
| 20260505025213 | 23 | 152 | 6.4 | 14.5 | 0.00 | 0.00 | 0.00 | 61 | 1009.5 |
| 20260505024711 | 23 | 164 | 4.8 | 14.5 | 0.00 | 0.00 | 0.00 | 61 | 1009.6 |
| 20260505024451 | 23 | 152 | 4.8 | 14.5 | 0.00 | 0.00 | 0.00 | 60 | 1009.6 |
| 20260505023708 | 23 | 156 | 6.4 | 12.9 | 0.00 | 0.00 | 0.00 | 60 | 1009.5 |
| 20260505023209 | 23 | 171 | 4.8 | 11.3 | 0.00 | 0.00 | 0.00 | 60 | 1009.4 |
| 20260505022707 | 23 | 161 | 4.8 | 12.9 | 0.00 | 0.00 | 0.00 | 59 | 1009.4 |
| 20260505022208 | 23 | 162 | 4.8 | 12.9 | 0.00 | 0.00 | 0.00 | 59 | 1009.4 |
| 20260505021703 | 23 | 156 | 4.8 | 11.3 | 0.00 | 0.00 | 0.00 | 59 | 1009.3 |
| 20260505021203 | 23 | 172 | 4.8 | 12.9 | 0.00 | 0.00 | 0.00 | 58 | 1009.3 |
| 20260505020700 | 23 | 150 | 4.8 | 12.9 | 0.00 | 0.00 | 0.00 | 58 | 1009.4 |
| 20260505020201 | 23 | 186 | 4.8 | 12.9 | 0.00 | 0.00 | 0.00 | 57 | 1009.4 |
| 20260505015701 | 23 | 0 | 3.2 | 9.7 | 0.00 | 0.00 | 0.00 | 56 | 1009.6 |
| 20260505015201 | 24 | 0 | 4.8 | 8.0 | 0.00 | 0.00 | 0.00 | 56 | 1009.4 |
| 20260505014657 | 24 | 0 | 4.8 | 12.9 | 0.00 | 0.00 | 0.00 | 56 | 1009.4 |
| 20260505014156 | 24 | 0 | 4.8 | 14.5 | 0.00 | 0.00 | 0.00 | 55 | 1009.4 |
| 20260505013656 | 24 | 0 | 4.8 | 14.5 | 0.00 | 0.00 | 0.00 | 55 | 1009.3 |
| 20260505013158 | 24 | 0 | 4.8 | 14.5 | 0.00 | 0.00 | 0.00 | 54 | 1009.3 |
| 20260505012654 | 25 | 0 | 4.8 | 14.5 | 0.00 | 0.00 | 0.00 | 54 | 1009.2 |
| 20260505012153 | 25 | 0 | 4.8 | 14.5 | 0.00 | 0.00 | 0.00 | 53 | 1009.2 |
| 20260505011649 | 25 | 0 | 6.4 | 14.5 | 0.00 | 0.00 | 0.00 | 53 | 1009.2 |
| 20260505011148 | 25 | 0 | 4.8 | 12.9 | 0.00 | 0.00 | 0.00 | 53 | 1009.1 |
| 20260505010649 | 25 | 0 | 4.8 | 11.3 | 0.00 | 0.00 | 0.00 | 52 | 1009.0 |
| 20260505010431 | 25 | 0 | 4.8 | 12.9 | 0.00 | 0.00 | 0.00 | 52 | 1009.0 |
| 20260505005647 | 25 | 138 | 4.8 | 12.9 | 0.00 | 0.00 | 0.00 | 51 | 1009.0 |
| 20260505005148 | 25 | 153 | 4.8 | 11.3 | 0.00 | 0.00 | 0.00 | 50 | 1009.0 |
| 20260505004644 | 25 | 192 | 4.8 | 17.7 | 0.00 | 0.00 | 0.00 | 50 | 1009.1 |
| 20260505004420 | 26 | 173 | 6.4 | 17.7 | 0.00 | 0.00 | 0.00 | 49 | 1009.1 |